Total_Precipitation_Accumulation
0.05 0.16 0.36 0.66 1.12 1.73 1.92 1.36 1.01 0.89 0.76 0.69 0.56 0.47 0.56 0.84 1.12 1.80 1.61 1.20 0.83 0.75 0.80 0.85 0.84 0.69 0.61 0.62 0.65 0.67 0.66 0.62 0.56 0.57 0.73 0.87 1.08 1.19 1.16 1.15 1.40 1.68 1.74 1.68 1.63 1.35 1.13 1.11 1.00
0.08 0.19 0.39 0.82 1.55 2.28 1.98 1.16 0.88 0.82 0.67 0.62 0.58 0.55 0.65 0.78 0.78 0.98 1.21 1.05 0.68 0.58 0.62 0.59 0.65 0.63 0.57 0.57 0.58 0.59 0.60 0.60 0.59 0.66 0.78 0.87 1.00 1.17 1.26 1.32 1.56 1.73 1.64 1.58 1.33 1.08 0.96 0.88 0.80
0.15 0.27 0.43 0.87 1.35 1.94 1.58 0.96 0.70 0.66 0.59 0.66 0.81 0.72 0.85 0.97 0.93 1.07 1.06 0.84 0.64 0.55 0.54 0.65 0.66 0.61 0.57 0.52 0.56 0.57 0.59 0.60 0.62 0.69 0.77 0.84 0.97 1.19 1.33 1.34 1.50 1.50 1.38 1.29 1.13 1.00 0.84 0.74 0.69
0.16 0.33 0.50 0.74 0.89 0.88 0.92 0.90 0.67 0.74 0.76 0.69 0.79 1.00 1.04 0.97 0.94 1.03 1.06 0.86 0.62 0.58 0.55 0.62 0.65 0.60 0.59 0.53 0.51 0.55 0.57 0.64 0.66 0.77 0.86 0.91 1.05 1.19 1.24 1.31 1.44 1.37 1.29 1.21 1.10 0.93 0.76 0.67 0.65
0.13 0.33 0.56 0.70 0.83 0.69 0.68 0.76 0.65 0.69 0.74 0.72 0.76 1.18 1.36 1.20 0.95 0.93 0.96 0.89 0.68 0.78 0.75 0.70 0.72 0.69 0.63 0.52 0.49 0.52 0.56 0.66 0.70 0.78 0.86 0.89 0.97 1.03 1.12 1.28 1.36 1.26 1.20 1.06 0.99 0.89 0.73 0.73 0.78
0.12 0.29 0.55 0.65 0.73 0.59 0.61 0.66 0.63 0.66 0.74 0.81 0.96 1.35 1.62 1.47 1.30 1.21 1.16 1.01 0.81 0.85 0.86 0.82 0.84 0.80 0.74 0.61 0.56 0.58 0.63 0.70 0.73 0.76 0.79 0.82 0.86 0.90 1.01 1.24 1.28 1.14 0.99 0.92 0.94 0.89 0.78 0.77 0.83
0.10 0.22 0.43 0.51 0.62 0.63 0.59 0.54 0.59 0.74 0.96 1.04 1.17 1.53 1.72 1.99 1.83 1.58 1.51 1.39 1.12 1.03 0.97 0.91 0.88 0.78 0.80 0.79 0.69 0.70 0.77 0.80 0.78 0.77 0.75 0.75 0.79 0.88 1.02 1.23 1.25 1.09 0.90 0.83 0.84 0.84 0.78 0.73 0.80
0.07 0.15 0.26 0.41 0.53 0.62 0.52 0.48 0.48 0.63 1.01 1.01 1.06 1.34 1.80 1.82 1.80 1.99 1.95 1.93 1.63 1.42 1.19 1.05 1.08 1.08 0.96 0.90 0.84 0.89 0.94 0.94 0.92 0.83 0.83 0.85 0.92 0.98 1.15 1.23 1.19 1.07 0.92 0.81 0.78 0.80 0.73 0.75 0.78
0.07 0.16 0.22 0.33 0.43 0.44 0.35 0.37 0.42 0.56 0.72 0.90 1.09 1.14 1.36 1.31 1.52 1.95 2.19 2.38 2.28 1.77 1.51 1.28 1.17 1.15 1.08 1.01 1.04 1.28 1.27 1.18 1.12 1.10 1.09 1.11 1.28 1.38 1.50 1.31 1.26 1.15 1.06 1.06 1.04 1.05 0.98 0.93 0.87
0.07 0.16 0.16 0.19 0.26 0.27 0.23 0.27 0.33 0.59 1.01 1.38 1.52 1.40 1.35 1.42 1.78 2.09 2.15 2.19 2.35 1.92 1.58 1.52 1.41 1.26 1.17 1.03 1.14 1.50 1.39 1.30 1.36 1.44 1.35 1.53 1.77 1.92 1.57 1.48 1.56 1.58 1.61 1.57 1.65 1.75 1.43 1.21 1.33
0.04 0.08 0.11 0.15 0.17 0.19 0.21 0.25 0.31 0.54 1.06 1.42 1.59 1.57 1.60 1.61 1.98 2.34 2.47 2.27 2.33 2.18 1.82 1.69 1.56 1.48 1.49 1.57 1.39 1.50 1.61 1.65 1.68 1.71 1.77 1.85 1.72 1.68 1.63 1.73 1.89 2.00 2.00 1.94 2.22 2.25 1.77 1.86 2.26
0.02 0.03 0.08 0.13 0.15 0.18 0.20 0.23 0.39 0.54 0.89 1.21 1.27 1.67 1.89 1.83 2.16 2.40 2.52 2.63 2.55 2.43 2.11 1.88 1.74 1.74 1.82 1.77 1.70 1.59 1.64 1.64 1.75 1.92 1.91 2.05 2.17 2.08 2.12 2.23 2.18 2.30 2.41 2.67 2.72 2.86 2.47 2.48 2.35
0.02 0.03 0.06 0.08 0.13 0.17 0.21 0.25 0.30 0.58 0.75 0.98 1.20 1.59 1.81 1.79 2.16 2.52 2.82 2.89 2.87 2.59 2.26 2.21 1.94 1.86 1.91 2.04 2.11 1.87 1.99 1.95 1.95 2.13 2.27 2.32 2.50 2.50 2.54 2.54 2.55 2.38 2.55 2.73 3.11 3.06 3.27 3.25 2.88
0.02 0.04 0.06 0.09 0.11 0.16 0.30 0.40 0.40 0.74 0.80 0.95 1.22 1.66 1.74 1.72 1.97 2.00 2.39 2.70 2.80 2.54 2.36 2.29 2.16 2.19 2.27 2.27 2.32 2.36 2.38 2.42 2.36 2.34 2.41 2.47 2.68 2.96 2.98 2.86 2.84 2.63 2.61 2.93 3.24 3.24 3.72 3.62 3.45
0.03 0.08 0.12 0.14 0.17 0.24 0.34 0.60 0.65 0.85 0.93 1.15 1.22 1.40 1.54 1.55 1.68 1.85 2.11 2.41 2.50 2.30 2.40 2.54 2.66 2.84 2.91 2.89 2.84 2.78 2.81 2.77 2.83 3.00 3.01 3.07 3.03 3.15 3.07 3.06 2.92 2.91 2.93 3.15 3.25 3.38 3.77 3.56 3.49
0.07 0.16 0.26 0.28 0.26 0.31 0.51 1.06 0.98 1.04 1.02 1.09 1.11 1.26 1.35 1.41 1.57 1.90 2.04 2.27 2.42 2.33 2.44 2.68 2.77 3.15 3.31 3.34 3.43 3.35 3.27 3.20 3.33 3.39 3.41 3.41 3.33 3.20 3.28 3.08 2.90 3.08 3.14 3.35 3.62 3.62 3.71 3.81 3.74
0.11 0.18 0.28 0.35 0.25 0.25 0.47 0.89 0.86 0.95 1.15 1.05 1.04 1.10 1.14 1.22 1.35 1.57 1.83 2.07 2.35 2.69 2.96 3.28 3.37 3.34 3.44 3.63 3.77 3.54 3.48 3.40 3.32 3.25 3.37 3.32 3.15 3.07 3.41 3.26 3.28 3.32 3.53 3.47 3.20 3.73 3.89 3.86 3.78
0.10 0.17 0.25 0.30 0.28 0.25 0.40 0.62 0.79 0.89 1.01 1.09 1.10 1.19 1.26 1.38 1.62 1.82 2.13 2.31 2.55 3.07 3.46 3.67 3.69 3.92 4.21 4.40 4.30 4.04 3.63 3.33 3.20 3.15 3.14 3.13 3.12 3.05 3.36 3.19 3.20 3.43 3.79 3.88 3.79 4.00 3.89 3.75 3.81
0.09 0.18 0.24 0.26 0.31 0.35 0.44 0.52 0.83 1.07 1.17 1.30 1.46 1.70 1.88 2.04 2.11 2.27 2.57 2.79 2.94 3.10 3.34 3.65 4.07 4.41 4.53 4.35 4.27 4.20 3.90 3.58 3.21 2.95 2.91 3.02 2.92 3.01 3.37 3.08 3.48 3.53 3.70 3.88 3.85 4.04 3.93 3.71 3.80
0.11 0.20 0.27 0.31 0.35 0.34 0.49 0.60 0.85 1.30 1.45 1.41 1.46 1.48 1.53 1.97 2.17 2.35 2.60 2.74 2.73 2.93 3.21 3.63 4.09 4.41 4.31 4.42 4.63 4.57 4.34 3.65 3.28 3.11 3.05 2.98 2.90 2.89 3.00 3.49 3.46 3.55 3.72 3.75 3.70 3.79 3.61 3.35 3.65
0.13 0.17 0.24 0.30 0.40 0.39 0.50 0.90 1.11 1.40 1.55 1.43 1.39 1.40 1.35 1.54 1.84 1.97 2.13 2.31 2.54 2.95 3.36 3.64 3.97 4.14 4.17 4.38 4.52 4.22 4.01 3.52 3.38 3.37 3.20 3.05 3.03 3.01 3.13 3.38 3.46 3.50 3.37 3.53 3.70 3.53 3.47 3.35 3.41
0.13 0.13 0.16 0.25 0.41 0.57 0.63 1.24 1.54 1.73 1.61 1.35 1.37 1.43 1.52 1.64 1.71 1.83 1.88 2.16 2.51 2.91 3.48 3.88 3.92 4.01 3.89 4.01 4.12 3.95 3.60 3.35 3.25 3.24 3.01 2.90 2.84 2.83 2.94 3.06 3.24 3.36 3.27 3.37 3.28 3.31 3.41 3.37 3.21
0.11 0.10 0.13 0.22 0.35 0.57 0.71 1.09 1.57 1.67 1.56 1.27 1.18 1.37 1.60 1.58 1.63 1.86 1.80 1.98 2.23 2.63 3.03 3.43 3.78 3.85 3.67 3.61 3.65 3.78 3.62 3.35 3.13 3.03 2.92 2.85 2.83 2.67 2.64 2.79 3.02 3.13 3.03 2.97 3.18 3.42 3.35 3.17 3.07
0.09 0.11 0.19 0.31 0.52 0.90 0.71 0.83 1.25 1.51 1.41 1.16 1.16 1.29 1.47 1.64 1.62 1.77 2.02 2.06 2.17 2.45 2.79 3.06 3.30 3.29 3.22 3.17 3.21 3.32 3.39 3.35 3.12 2.90 2.92 2.88 2.74 2.59 2.53 2.59 2.86 2.95 2.88 2.83 2.93 2.99 3.01 2.98 3.09
0.09 0.19 0.56 0.91 1.23 1.10 0.73 0.82 1.18 1.14 1.00 0.91 0.97 1.22 1.50 1.76 1.76 1.79 1.97 2.06 2.14 2.26 2.41 2.55 2.66 2.70 2.66 2.70 2.67 2.67 2.80 2.86 2.73 2.67 2.73 2.74 2.62 2.49 2.48 2.46 2.57 2.51 2.48 2.57 2.78 2.78 2.69 2.73 2.86
0.12 0.22 0.61 0.83 1.00 0.95 0.88 1.10 1.17 0.93 0.81 0.82 0.90 1.08 1.37 1.53 1.56 1.65 1.74 1.66 1.67 1.74 1.87 2.02 2.13 2.15 2.10 2.18 2.26 2.27 2.47 2.47 2.46 2.59 2.52 2.55 2.48 2.44 2.38 2.30 2.24 2.17 2.17 2.22 2.52 2.61 2.54 2.59 2.60
0.20 0.26 0.29 0.48 0.60 0.97 1.18 1.29 1.19 0.87 1.00 0.99 1.07 1.12 1.17 1.21 1.24 1.24 1.26 1.33 1.46 1.51 1.54 1.62 1.80 1.82 1.75 1.80 1.96 2.02 2.08 2.19 2.29 2.37 2.29 2.19 2.22 2.11 2.14 2.13 2.03 1.97 2.03 2.13 2.21 2.23 2.21 2.31 2.31
0.22 0.34 0.47 0.70 0.94 1.11 1.24 1.51 1.69 1.49 1.40 1.27 1.38 1.59 1.35 1.08 1.09 1.11 1.08 1.13 1.19 1.23 1.33 1.49 1.62 1.77 1.77 1.72 1.76 1.70 1.79 1.89 2.08 2.15 2.05 2.07 2.15 2.10 2.01 1.95 1.86 1.85 1.87 1.90 2.00 1.97 2.02 2.01 2.01
0.33 0.42 0.52 0.67 0.78 1.05 1.38 1.56 1.36 1.51 1.46 1.39 1.37 1.41 1.29 0.96 0.85 0.93 0.91 0.95 1.00 1.05 1.16 1.32 1.61 1.77 1.70 1.54 1.56 1.63 1.60 1.70 1.84 1.89 1.84 1.94 2.04 2.17 2.14 2.03 1.95 1.82 1.74 1.78 1.83 1.73 1.85 1.88 1.87
0.28 0.42 0.53 0.70 0.78 0.88 1.12 1.37 1.00 1.14 1.11 1.08 1.14 1.00 0.91 0.83 0.69 0.79 0.84 0.82 0.85 0.90 0.99 1.14 1.34 1.51 1.52 1.48 1.50 1.60 1.68 1.69 1.65 1.65 1.68 1.75 1.78 1.84 1.85 1.80 1.79 1.78 1.83 1.90 1.82 1.75 1.75 1.79 1.75